Regional Weather Roundup
Issued by NWS

Home | Current Version | Previous Version | Graphics & Text | Print | Product List | Glossary On
Versions: 1 2 3 4 5 6 7 8 9 10 11 12 13 14 15 16 17 18 19 20 21 22 23 24 25 26 27 28 29 30 31 32 33 34 35 36 37 38 39 40 41 42 43 44 45 46 47 48 49 50
000
ASUS43 KLSX 181857
RWRMO

WEATHER SUMMARY FOR MISSOURI
NATIONAL WEATHER SERVICE SPRINGFIELD MO
100 PM CST WED JAN 18 2017

NOTE: "FAIR" INDICATES FEW OR NO CLOUDS BELOW 12,000 FEET WITH NO
       SIGNIFICANT WEATHER AND/OR OBSTRUCTIONS TO VISIBILITY.
       CURRENT SKY AND/OR WEATHER CONDITIONS ARE NOT AVAILABLE FOR
       CHILLICOTHE AND FARMINGTON.

MOZ001>031-035>038-043-044-053-054-182000-
...NORTHERN AND WESTERN MISSOURI...

CITY           SKY/WX    TMP DP  RH WIND       PRES   REMARKS
KANSAS CTY INT CLOUDY    38  35  89 S9        30.08F
LEE`S SUMMIT   CLOUDY    39  38  96 S7        30.10F
ST JOSEPH      SUNNY     44  40  85 S6        30.07F
CHILLICOTHE      N/A     38  37  97 S9        30.11F

$$
MOZ066>068-077>081-088>096-101>105-182000-
...SOUTHWEST MISSOURI...

CITY           SKY/WX    TMP DP  RH WIND       PRES   REMARKS
SPRINGFIELD    PTSUNNY   50  35  56 SE8       30.10F
JOPLIN         CLOUDY    50  40  68 E6        30.10F
BRANSON        CLOUDY    41  41 100 E6        30.12F

$$
MOZ032>034-039>042-045>050-055>058-069>072-182000-
...CENTRAL MISSOURI...

CITY           SKY/WX    TMP DP  RH WIND       PRES   REMARKS
COLUMBIA       NOT AVBL
JEFFERSON CITY MOSUNNY   45  35  68 S5        30.15F
ROLLA          CLOUDY    46  35  65 S5        30.12F
SEDALIA        PTSUNNY   43  38  82 S3        30.11F
WARRENSBURG    CLOUDY    39  36  87 CALM      30.10F

$$
MOZ051-052-059>065-182000-
...EAST CENTRAL MISSOURI...

CITY           SKY/WX    TMP DP  RH WIND       PRES   REMARKS
ST LOUIS INTL  PTSUNNY   48  32  53 S9        30.16F

$$
MOZ072>076-082>087-097>100-106>115-182000-
...SOUTH CENTRAL AND SOUTHEAST MISSOURI...

CITY           SKY/WX    TMP DP  RH WIND       PRES   REMARKS
CAPE GIRARDEAU CLOUDY    43  36  76 CALM      30.19F
POPLAR BLUFF   CLOUDY    43  39  86 NE3       30.18F
WEST PLAINS    CLOUDY    42  37  82 E6        30.14F

$$



USA.gov is the U.S. government's official web portal to all federal, state and local government web resources and services.